Hourly Data Report for October 01, 2017

All times are specified in Local Standard Time (LST). Add 1 hour to adjust for Daylight Saving Time where and when it is observed.

PEMBERTON AIRPORT CS
BRITISH COLUMBIA

50°18'20.326" N
122°44'02.720" W
204.30 m
1086082
71777
WGP

Download Data

Hourly Data (October 2017)
Hourly Data Report for October 1, 2017
Temp Definition
°C
Dew Point Temp Definition
°C
Rel Hum Definition
%
Wind Dir Definition
10's deg

Wind Spd Definition
km/h
Visibility Definition
km
Stn Press Definition
kPa
Hmdx Definition


Wind Chill Definition


Weather Definition


TIME
00:00 9.4 8.9 97 LegendMM LegendMM   99.35     LegendNANA
01:00 9.3 8.8 97 LegendMM LegendMM   99.37     LegendNANA
02:00 9.0 8.5 97 LegendMM LegendMM   99.39     LegendNANA
03:00 8.4 7.7 96 LegendMM LegendMM   99.41     LegendNANA
04:00 7.9 7.4 97 LegendMM LegendMM   99.43     LegendNANA
05:00 7.2 6.7 97 LegendMM LegendMM   99.47     LegendNANA
06:00 6.8 6.3 97 LegendMM LegendMM   99.51     LegendNANA
07:00 6.7 6.3 97 LegendMM LegendMM   99.57     LegendNANA
08:00 6.7 6.3 97 LegendMM LegendMM   99.60     LegendNANA
09:00 8.8 8.3 97 LegendMM LegendMM   99.60     LegendNANA
10:00 11.7 8.0 78 LegendMM LegendMM   99.59     LegendNANA
11:00 11.5 8.1 80 LegendMM LegendMM   99.58     LegendNANA
12:00 13.6 7.9 68 LegendMM LegendMM   99.52     LegendNANA
13:00 15.1 6.5 56 LegendMM LegendMM   99.49     LegendNANA
14:00 14.6 9.3 70 LegendMM LegendMM   99.45     LegendNANA
15:00 14.9 7.6 62 LegendMM LegendMM   99.44     LegendNANA
16:00 13.8 7.3 65 LegendMM LegendMM   99.48     LegendNANA
17:00 13.1 6.1 62 LegendMM LegendMM   99.50     LegendNANA
18:00 10.6 6.2 74 LegendMM LegendMM   99.54     LegendNANA
19:00 8.9 6.6 85 LegendMM LegendMM   99.61     LegendNANA
20:00 8.7 6.8 88 LegendMM LegendMM   99.64     LegendNANA
21:00 9.5 6.7 83 LegendMM LegendMM   99.66     LegendNANA
22:00 8.0 6.5 90 LegendMM LegendMM   99.67     LegendNANA
23:00 7.5 6.4 93 LegendMM LegendMM   99.68     LegendNANA

Notes on Data Quality.

Legend

  • E = Estimated
  • M = Missing
  • NA = Not Available
  • ‡ = Partner data that is not subject to review by the National Climate Archives
Date modified: